Погода в Сватово

Украина / Луганская область     49°24′33″N   38°09′43″E
темп.,
°C
ветер,
м/с
пор.,
м/с
влажн.,
%
обл.,
%
осадки,
мм/ч
давл.,
гПа
погр.,
м
24 января, вс
вс2423:00+2ю51196100 0.0 1019292
02:00+2ю51194100 0.0 1019309
05:00+2ююв51096100 0.0 1019280
08:00+2ю51194100 0.2 1019292
11:00+3ю51192100 0.2 1019342
14:00+3ююв51082100 0.4 1018257
17:00+1юв51181100 0.0 1019223
20:00+1юв61382100 0.0 1019304
25 января, пн
пн2523:000юв61290100 0.0 1019361
02:000юв61390100 0.0 1017373
05:00−1юв61292100 0.0 1016374
08:00+1ююв61190100 0.2 1016291
11:00+2ююв5109399 0.0 1016330
14:00+2юв6109390 0.4 1014279
17:00+2юв71392100 0.4 1014298
20:00+1юв81487100 0.4 1013362
26 января, вт
вт2623:00+1юв91882100 0.0 1011461
02:00+2юв101775100 0.3 1009516
05:00+3ю71491100 1.2 1011455
08:00+2ю6149067 0.8 1011515
11:00+3ююв5993100 0.0 1013367
14:00+4юв61296100 0.0 1011461
17:00+3ююв61396100 0.0 1011342
20:00+5ююв91888100 2.3 1009499
27 января, ср
ср2723:00+4ююв81789100 1.0 1009539
02:00+4ююв61492100 1.4 1010429
05:00+3юв71478100 0.0 1010335
08:00+2юв3790100 2.5 1009194
11:00+2ююв4994100 2.8 1008385
14:00+4юв101778100 0.1 1007421
17:00+2юв61291100 1.3 1007390
20:00+1юв61193100 1.3 1006441
28 января, чт
чт2823:00+1юв5993100 1.0 1005335
02:00+1юв41095100 1.1 1004345
05:00+2вюв61093100 0.2 1003258
08:00+2юв81493100 0.1 1006426
11:00+2юв71292100 0.7 1006486
14:00+4юв51090100 0.7 1006430
17:00+4ююв41192100 0.0 1004330
20:00+4ю51191100 0.0 1004386